Погода в Джалинде

Погода в Джалинде : погода сейчас, прогноз погоды и архив. Всё, что Вы хотите узнать о погоде в Джалинде!

Поиск расширенной информации на нашем сайте:

Другие новости

Новости СМИ2

Главная страница сайта

Новости сайта

03.07.2017

Напоминаем, что на нашем специализированном сайте Метеоцентр.Азия вы можете получить высокодетализированные автоматические прогнозы погоды по пунктам России, СНГ и мира в авиационном формате (включающие направление и скорость ветра, видимость, явления погоды, количество и форму облачности, нижнюю и верхнюю границу облачности).

Рекомендуем: Бит авто запчасти маз konnor-auto.ru.

Погода в Джалинде - сегодня

Время (UTC), дата Ветер
(°,м/с) 
Видим.   Явления Облачность Т
(°С)
Тd
(°С)
f(%) Тe
(°С)
Pmin
(гПа)
dP
(гПа)
Po
(мм)
O2
(г/м3)
Тmin Tmax R s Состояние
почвы
06 09.12.17 290 (З) 4000 м  слаб. снег  10/0 средняя, верхняя 
[As op|Cs]
-22.4 -25.6 75 -23  1021.3  739  326           
09 09.12.17 320 (СЗ) 4000 м  слаб. снег  10/0 средняя 
[As op]
-23.4 -25.9 80 -26  1023.3  1.7  740  328           
12 09.12.17 340 (С) 4000 м  слаб. снег  6/0 средняя 
[As op]
-26.8 -29.5 78 -27  1025.3  1.5  741  333    -22.4  0.7     
15 09.12.17 320 (СЗ) 10 км  слаб. снег  8/0 средняя, верхняя 
[As op|Cs]
-29.6 -32.8 74 -33  1026.5  0.7  742  337           
18 09.12.17 340 (С) 20000 м  {снег}  6/0 верхняя 
[Cs]
-29.1 -32.2 74 -33  1027.3  0.9  742  337           
21 09.12.17 300 (СЗ) 20000 м    3/0 верхняя 
[Cs]
-31.6 -35.1 71 -35  1028.3  0.6  743  340           
00 10.12.17 340 (С) 20000 м    8/0 средняя, верхняя 
[Ac As|Ci]
-29.6 -33 72 -33  1029.5  1.4  744  338  -33.3    0.0  12  равномерный
сухой снег
100% 
03 10.12.17 320 (СЗ) 20000 м    8/0 верхняя 
[Ci]
-24.9 -29.2 67 -31  1029.4  0.6  744  332           
06 10.12.17 320 (СЗ) 20000 м    8/0 верхняя 
[Ci]
-22.1 -28.4 57 -27  1029.1  744  328           
09 10.12.17 330 (СЗ) 20000 м    3/0 верхняя 
[Ci]
-23.7 -30 56 -30  1030.8  1.5  746  331           
12 10.12.17 320 (СЗ) 20000 м    ясно 
-26.5 -31.2 64 -33  1031.9  0.6  746  335    -22       
15 10.12.17 320 (СЗ) 20000 м    ясно 
-24.9 -30.1 62 -31  1031.9  0.3  746  333           
18 10.12.17 330 (СЗ) 20000 м    ясно 
-26.2 -30.4 68 -31  1032.4  0.3  746  335           
21 10.12.17 320 (СЗ) 20000 м    ясно 
-25.3 -30 65 -32  1032.7  0.4  747  333           
00 11.12.17 330 (СЗ) 20000 м  {снег}  10/0 средняя, верхняя 
[Ac lent|Cs]
-25.7 -30.1 67 -32  1032.9  0.2  747  334  -26.5    0.0  11  равномерный
сухой снег
100% 
03 11.12.17 310 (СЗ) 20000 м    10/0 верхняя 
[Cs]
-23.7 -29.5 59 -32  1032.5  -0.2  747  331           
06 11.12.17 320 (СЗ) 20000 м    10/0 средняя, верхняя 
[Ac lent|Cs]
-21.1 -27.9 54 -27  1031.2  -0.8  746  328           
09 11.12.17 320 (СЗ) 20000 м    8/0 верхняя 
[Ci]
-21.9 -28.2 57 -28  1031.6  0.2  746  329           
12 11.12.17 320 (СЗ) 6-10{11}  20000 м  позёмок  4/0 верхняя 
[Ci fib]
-22.5 -29 55 -30  1031.4  -0.2  746  329    -21       
15 11.12.17 350 (С) 4{10}  20000 м    ясно 
-25.5 -30.3 64 -32  1031.8  -0.1  746  333           
18 11.12.17 010 (С) 20000 м    ясно 
-26.6 -31 66 -33  1031.5  -0.5  746  335           
21 11.12.17 360 (С) 20000 м    ясно 
-27 -31.4 66 -34  1031.6  746  335           
00 12.12.17 340 (С) 20000 м    ясно 
-27.1 -31.7 65 -35  1032.1  0.5  746  336  -27.4      11  равномерный
сухой снег
100% 
03 12.12.17 330 (СЗ) 7-10{10}  20000 м  позёмок  ясно 
-23.4 -29.6 57 -32  1030.9  -0.6  746  330           
06 12.12.17 340 (С) 3{10}  20000 м    ясно 
-18.8 -27.5 46 -23  1030.1  -0.2  746  324           
Время (UTC), дата Ветер
(°,м/с) 
Видим.   Явления Облачность Т
(°С)
Тd
(°С)
f(%) Тe
(°С)
Pmin
(гПа)
dP
(гПа)
Po
(мм)
O2
(г/м3)
Тmin Tmax R s Состояние
почвы

Для получения пояснительной информации подведите курсор к названию столбца.

ПОГОДА в Джалинде - архив

Всё, что Вы хотите узнать о погоде в Джалинде - удобно и подробно!

Выберите нужную дату (начиная с 1 января 2015* года) и нажмите кнопку "Найти".
Будут отображены архивные сводки погоды по пункту Джалинда, начиная с указанной даты.


Отображать данные в формате CSV (для использования в таблицах Excel)


Внимание! Наш архив погоды предназначен исключительно для личного некоммерческого использования в познавательных целях. Если Вам необходимы официальные справки о состоянии погоды (для производственных, юридических, коммерческих и т.п. целей), обращайтесь в органы Росгидромета.

*Примечание: данная дата относится к архиву по метеостанциям СССР (Россия, СНГ, Балтия).
Архив по метеостанциям Зарубежной Европы и Азии (кроме Китая) хранится 10 дней, по другим регионам земного шара (Китай, Африка, Америка, Австралия, Океания) - 1 день.

Джалинда - район местоположения метеостанции


Название, широта, долгота, высота метеостанции:
Джалинда 53.5°ш. 123.9°д. 266 м над ур. моря [Российская Федерация]

Дополнительная информация

В oтличие oт бoльшинства пoгoдных сайтoв мы публикуем пoдрoбную метеoинфoрмацию в детальнoм прoфессиoнальнoм фoрмате.

Характеристики температуры и влажнoсти вoздуха измеряются на высoте 2 м в тени вдали oт зданий и деревьев.
Скoрoсть ветра измеряется на высoте 10 м (на урoвне рoста челoвека скoрoсть ветра ниже в 1.5-2 раза). Если метеoстанция нахoдится в гoрoде или в лесу, тo скoрoсть ветра занижена на 2-4 м/с пo сравнению с oткрытым местoм. Скoрoсть ветра над акватoриями крупных рек и oзёр, а также на вершинах хoлмoв на 2-5 м/с выше, чем в oбычных услoвиях.
Атмoсфернoе давление в разных тoчках местнoсти мoжет значительнo oтличаться oт давления на метеoстанции, в зависимoсти oт услoвий рельефа (при пoдъёме на 10 м давление пoнижается примернo на 1 мм рт.ст.).